Location: Carri�res
(48.9069°N, 2.1792°E)
Time: 19:19:25
(UTC+00:00)

USA 234 - Pass Details

Date: 17 January 2021
Orbit: 1100 x 1107 km, 123.0° (Epoch: 27 February)

Event Time Altitude Azimuth Distance (km) Brightness Sun altitude
Exits shadow 19:06:22 56° 86° (E) 1,293 3.2 -25.9°
Maximum altitude 19:07:44 72° 27° (NNE) 1,158 3.2 -26.1°
Drops below altitude 10° 19:14:15 10° 305° (NW) 2,968 6.2 -27.2°
Sets 19:16:45 0° 303° (WNW) 3,929 7.0 -27.6°
